Regional Weather Roundup
Issued by NWS

Home | Current Version | Previous Version | Graphics & Text | Print | Product List | Glossary On
Versions: 1 2 3 4 5 6 7 8 9 10 11 12 13 14 15 16 17 18 19 20 21 22 23 24 25 26 27 28 29 30 31 32 33 34 35 36 37 38 39 40 41 42 43 44 45 46 47 48 49 50
000
ASUS43 KMKX 210500
RWRWI

WISCONSIN REGIONAL WEATHER ROUNDUP
NATIONAL WEATHER SERVICE MILWAUKEE/SULLIVAN WI
1200 AM CDT TUE APR 21 2015

NOTE: "FAIR" INDICATES FEW OR NO CLOUDS BELOW 12,000 FEET WITH NO
SIGNIFICANT WEATHER AND/OR OBSTRUCTIONS TO VISIBILITY.

WIZ001-002-006>008-014>016-023>028-210600-
NORTHWEST WISCONSIN

CITY           SKY/WX    TMP DP  RH WIND       PRES   REMARKS
SUPERIOR ARPT  CLOUDY    35  31  86 W16       29.39F WCI  25
ASHLAND        CLOUDY    34  31  88 W13       29.35S WCI  25
HAYWARD        LGT SNOW  33  30  88 SW7       29.40S FOG     WCI  27
SIREN          CLOUDY    34  32  93 W10       29.45F WCI  26
CUMBERLAND     FLURRIES  32  30  93 W12       29.44F WCI  23
RICE LAKE      FLURRIES  34  32  92 W9        29.46F WCI  27
CHETEK         LGT RAIN  34  32  92 W7        29.45F WCI  28
LADYSMITH      FLURRIES  35  31  87 W13       29.44S WCI  26
EAU CLAIRE     NOT AVBL
MENOMONIE      DRIZZLE   37  32  81 W14       29.48F WCI  29
NEW RICHMOND   MIX PCPN  34  31  88 W15       29.50S WCI  25
OSCEOLA        CLOUDY    35  31  87 W16G26    29.53S WCI  25
$$

WIZ003>005-009-010-017-018-210600-
NORTH CENTRAL WISCONSIN

CITY           SKY/WX    TMP DP  RH WIND       PRES   REMARKS
MANITOWISH WTR FLURRIES  31  29  92 W13       29.33F WCI  22
ARBOR VITAE    FLURRIES  34  30  84 W8        29.34F WCI  27
WOODRUFF       FLURRIES  34  30  84 W8        29.34F WCI  27
RHINELANDER    CLOUDY    33  27  78 W17       29.36R WCI  22
EAGLE RIVER    FLURRIES  33  27  80 W10       29.32S WCI  25
LAND O LAKES   FLURRIES  33  29  88 W8        29.32S WCI  25
PHILLIPS       FLURRIES  32  28  86 W7        29.38S WCI  26
TOMAHAWK       CLOUDY    33  27  79 W14       29.38S WCI  23
MEDFORD        CLOUDY    33  29  83 W9        29.41R WCI  26
MERRILL        CLOUDY    35  30  82 W9        29.39S WCI  27
$$

WIZ029-030-035-036-043>047-210600-
CENTRAL WISCONSIN

CITY           SKY/WX    TMP DP  RH WIND       PRES   REMARKS
WAUSAU         CLOUDY    36  28  73 W17       29.39F WCI  26
MOSINEE        CLOUDY    36  30  80 W12       29.43S WCI  27
MARSHFIELD     CLOUDY    36  30  79 W15       29.43S WCI  27
STEVENS POINT  CLOUDY    36  27  69 W7        29.44S WCI  30
WAUPACA        CLOUDY    41  29  63 SW10      29.46S
WAUTOMA        NOT AVBL
WISC RAPIDS    LGT RAIN  39  28  64 W13       29.45F WCI  31
CAMP DOUGLAS   DRIZZLE   39  32  75 W20G28    29.48S WCI  30
$$

WIZ011>013-019>022-031-037>040-048>050-210600-
NORTHEAST WISCONSIN

CITY           SKY/WX    TMP DP  RH WIND       PRES   REMARKS
ANTIGO         CLOUDY    33  28  80 W13       29.38S WCI  24
SHAWANO        CLOUDY    40  28  62 W10G16    29.43R WCI  34
OCONTO         CLOUDY    39  30  70 SW8       29.41S WCI  33
STURGEON BAY   CLOUDY    39  28  65 W13       29.43S WCI  32
GREEN BAY      CLOUDY    41  30  65 W15       29.44S
MANITOWOC      NOT AVBL
APPLETON       CLOUDY    37  28  70 W13       29.45F WCI  29
CLINTONVILLE   CLOUDY    37  28  70 W8G16     29.44R WCI  31
OSHKOSH        CLOUDY    40  29  64 W6        29.47S
$$

WIZ032>034-041-042-053>061-210600-
SOUTHWEST WISCONSIN

CITY           SKY/WX    TMP DP  RH WIND       PRES   REMARKS
LA CROSSE      CLOUDY    41  32  70 W17G24    29.53S
SPARTA         CLOUDY    39  30  70 W8        29.51S WCI  34
VIROQUA        CLOUDY    37  32  81 W14G23    29.52F WCI  29
BOSCOBEL       CLOUDY    42  30  62 W14G22    29.57F
PRAIRIE DU CHI MOCLDY    41  29  63 W13G20    29.59S
PLATTEVILLE    PTCLDY    39  32  76 W14       29.59S WCI  30
$$

WIZ056-057-062-063-064-067-068-210600-
SOUTH CENTRAL WISCONSIN

CITY           SKY/WX    TMP DP  RH WIND       PRES   REMARKS
REEDSBURG      CLOUDY    39  30  70 SW14G20   29.51F WCI  31
BARABOO/DELLS  MOCLDY    39  28  65 W12G22    29.50F WCI  32
LONE ROCK      NOT AVBL
MINERAL POINT  CLOUDY    41  32  70 W14G21    29.55F
MADISON        CLOUDY    41  31  67 W10G17    29.54R
MIDDLETON      CLOUDY    41  32  70 W13G20    29.54S
WATERTOWN      CLOUDY    41  29  63 W9        29.52S
MONROE         CLOUDY    39  32  75 W22G28    29.57S WCI  29
JANESVILLE     CLOUDY    43  32  65 W14       29.56F
$$

WIZ051-052-058>065-066-070>072-210600-
SOUTHEAST WISCONSIN

CITY           SKY/WX    TMP DP  RH WIND       PRES   REMARKS
MILWAUKEE      CLOUDY    44  26  49 W15       29.54S
WAUKESHA       CLOUDY    39  28  65 SW12G20   29.54S WCI  32
MILWAUKEE/TIMM CLOUDY    41  27  56 W20G25    29.53S
RACINE         CLOUDY    43  29  57 SW9G21    29.56S
BURLINGTON     CLOUDY    40  32  72 SW14      29.55F WCI  32
KENOSHA        CLOUDY    42  32  67 W16       29.56S
FOND DU LAC    CLOUDY    41  29  62 W8        29.49S
SHEBOYGAN      CLOUDY    41  30  65 W17G24    29.47F
WEST BEND      CLOUDY    41  30  65 SW15      29.50S
JUNEAU         CLOUDY    40  28  61 W12       29.52S WCI  33
$$

LSZ147-162-210600-
LAKE SUPERIOR

STATION/POSITION TIME  TEMP    WIND        PRES    WAVE
                       AIR SEA DIR/SP/G            HT/PER
                 (UTC) (F)     (DEG/KT/KT) (MB)    (FT/S)
DEVILS ISLAND    0400   35     240/ 24/ 30  993.2F
PORT WING        0440   37     260/ 15/ 21  994.6F
SAXON HARBOR     0440   34     210/  7/ 13  993.6F
$$

LMZ867-665-643>646-210600-
LAKE MICHIGAN

STATION/POSITION TIME  TEMP    WIND        PRES    WAVE
                       AIR SEA DIR/SP/G            HT/PER
                 (UTC) (F)     (DEG/KT/KT) (MB)    (FT/S)
CHAMBERS ISLAND  0400   39     200/  6/ 10  995.9S
NORTHPORT PIER   0400   39     210/  3/  8  995.6S
SISTER BAY       0402   40     260/ 18/ 20   N/A
KEWAUNEE LAKESHO 0400   41     260/  9/ 13  996.5F
SHEBOYGAN LAKESH 0400   42     240/ 10/ 13  999.1F
PORT WASHINGTON  0440   43     240/  8/ 11 1000.0F
MILWAUKEE LAKESH 0400   44     260/  8/ 11   N/A
KENOSHA   LAKESH 0400   44     250/ 12/ 19 1001.7S
$$

TC  - TEMPERATURE IN CELSIUS
VSB - VISIBILITY IN STATUTE MILES
WCI - WIND CHILL INDEX
HX  - HEAT INDEX



USA.gov is the U.S. government's official web portal to all federal, state and local government web resources and services.